Location: Ferchesar
(52.6477°N, 12.4298°E)
Time: 17:39:40
(UTC+01:00)

Explorer 7 - Pass Details

Date: 12 December 2021
Orbit: 483 x 674 km, 50.3° (Epoch: 23 January)

Event Time Altitude Azimuth Distance (km) Brightness Sun altitude
Rises 08:26:46 0° 280° (W) 2,758 9.9 0.8°
Reaches altitude 10° 08:29:28 10° 264° (W) 1,820 9.1 1.1°
Maximum altitude 08:32:36 21° 215° (SW) 1,220 8.7 1.4°
Drops below altitude 10° 08:35:36 10° 165° (SSE) 1,734 10.5 1.8°
Sets 08:38:06 0° 149° (SSE) 2,589 12.2 2.0°
